Location: Raleigh
(35.7720°N, 78.6390°W)
Time: 05:06:37
(UTC-04:00)

JAS-2 - Visible Passes

Search period start: 31 October 2014 00:00
Search period end: 09 November 2014 23:00
Orbit: 801 x 1321 km, 98.5° (Epoch: 30 October)

Date Brightness Start Highest point End Pass type
(mag) Time Alt. Az. Time Alt. Az. Time Alt. Az.
31 Oct 12.9 05:00:58 10° ENE 05:04:09 13° E 05:07:16 10° ESE visible
31 Oct 10.3 06:42:14 10° NNE 06:50:09 80° ESE 06:57:42 10° S visible
31 Oct 10.8 18:35:43 10° S 18:41:38 50° W 18:48:22 10° NNW visible
01 Nov 11.8 05:48:04 10° NNE 05:55:00 33° E 06:01:35 10° SSE visible
01 Nov 12.5 19:28:01 10° SW 19:32:19 19° W 19:36:59 10° NW visible
02 Nov 13.0 03:56:54 10° ENE 03:59:16 12° E 04:01:37 10° ESE visible
02 Nov 10.4 05:37:28 10° NNE 05:45:23 76° ESE 05:52:50 10° S visible
02 Nov 10.7 17:30:39 10° S 17:36:44 55° W 17:43:40 10° NNW visible
03 Nov 11.9 04:43:25 10° NE 04:50:10 31° E 04:56:32 10° SSE visible
03 Nov 12.4 18:22:42 10° SW 18:27:23 21° W 18:32:28 10° NW visible
04 Nov 13.0 03:53:23 10° ENE 03:54:23 10° E 03:55:21 10° E visible
04 Nov 10.4 05:32:44 10° NNE 05:40:36 71° ESE 05:47:56 10° S visible
05 Nov 12.0 04:38:47 10° NE 04:45:19 29° E 04:51:28 10° SSE visible
05 Nov 12.3 18:17:27 10° SW 18:22:27 23° W 18:27:56 10° NW visible
06 Nov 10.5 05:28:00 10° NNE 05:35:48 67° E 05:43:00 10° S visible
07 Nov 12.0 04:34:11 10° NE 04:40:28 27° E 04:46:21 10° SSE visible
07 Nov 12.2 18:12:14 10° SW 18:17:33 26° W 18:23:22 10° NW visible
08 Nov 10.6 05:23:17 10° NNE 05:31:00 63° E 05:38:03 10° S visible
09 Nov 12.1 04:29:36 10° NE 04:35:36 25° E 04:41:13 10° SE visible
09 Nov 10.1 06:13:25 10° N 06:21:01 60° WNW 06:28:01 10° SSW visible
09 Nov 12.1 18:07:03 10° SSW 18:12:39 28° W 18:18:47 10° NW visible
